Horizon Kodiak — KGTZ — position and weather

sailwx.info

Track history (hours):
 
Tides and Currents Weather Stations Pressure Air Temp Water Temp Dewpoint Dewpoint Depression Visibility Wind Speed Wind Dir Waves Ship Positions

Horizon Kodiak

More information available from US FCC via Universal Licensing System and Coast Guard Vessel Documentation Center.

Last reported at 2014-Jul-27 00:00 UTC. Time now 2014-Jul-28 08:24 UTC.
Position N 50°12' W 128°30'.

Type: Cargo ship. MMSI: 366793000.

Wind from 110 at 19 knots

Waves 1.0 meters (3 feet), 4 second period

Barometer 1022.6 mb
Air temperature 16.7 ° C
Visibility: greater than 10.8 NM
Dewpoint 14.9 ° C
Water temperature 15.0 ° C

Date/timePositionNaut miles runAvg speedWind from/ knotsBaromVisibWave heightAir tempDewpointWater temp
2014-Jul-27 00:00N 50°12' W 128°30'6220.6 110 / 191022.610.8 1.016.714.915.0
2014-Jul-26 21:00N 49°36' W 127°12'4015.7 270 / 51023.0 21.116.0-12.2
2014-Jul-26 18:27N 49°09' W 126°27'1820.0
2014-Jul-26 17:33N 48°58' W 126°05'2019.9
2014-Jul-26 16:33N 48°46' W 125°41'2019.7
2014-Jul-26 15:33N 48°37' W 125°15'2120.6
2014-Jul-26 14:33N 48°31' W 124°45'2121.3
2014-Jul-26 13:33N 48°23' W 124°15'2120.9
2014-Jul-26 12:33N 48°16' W 123°46'1717.1
2014-Jul-26 11:33N 48°09' W 123°23'1817.8
2014-Jul-26 10:33N 48°12' W 122°56'1817.0
2014-Jul-26 09:28N 47°60' W 122°36'1718.2
2014-Jul-26 08:33N 47°44' W 122°26'1918.8
2014-Jul-26 07:33N 47°26' W 122°23'10 1.5
2014-Jul-26 01:09N 47°16' W 122°25'0 0.0
2014-Jul-25 19:33N 47°16' W 122°25'0 0.0
2014-Jul-25 16:30N 47°16' W 122°25'0 0.0
2014-Jul-25 15:33N 47°16' W 122°25'0 0.0
2014-Jul-25 13:32N 47°16' W 122°25'1 0.6
2014-Jul-25 12:33N 47°17' W 122°26'6 6.2
2014-Jul-25 11:33N 47°22' W 122°23'1616.1
2014-Jul-25 10:33N 47°38' W 122°28'1717.1
2014-Jul-25 09:33N 47°55' W 122°30'1818.4
2014-Jul-25 08:33N 48°10' W 122°47'1918.6
2014-Jul-25 07:33N 48°11' W 123°14'1414.1
2014-Jul-25 06:33N 48°13' W 123°35'1817.9
2014-Jul-25 05:33N 48°16' W 124°02'1817.8
2014-Jul-25 04:33N 48°23' W 124°26'1717.4
2014-Jul-25 03:33N 48°29' W 124°51'1818.2
2014-Jul-25 02:33N 48°29' W 125°18'1818.0
2014-Jul-25 01:33N 48°38' W 125°41'1818.5
2014-Jul-25 00:33N 48°49' W 126°04'1918.9
2014-Jul-24 23:33N 49°00' W 126°28'9316.7
2014-Jul-24 18:00N 49°54' W 128°24'45619.0 240 / 91021.110.8 0.514.412.5-14.4
2014-Jul-23 18:00N 54°12' W 138°36'23019.1 220 / 141018.9 5.4 0.516.713.9-13.9
2014-Jul-23 06:00N 56°00' W 144°30'   240 / 91018.2 5.4 0.513.912.9-12.8
2014-Jul-19 18:00N 57°18' W 145°06'41917.5 250 / 191009.810.8 1.013.912.0-13.3
2014-Jul-18 18:00N 53°24' W 134°54'24118.6 280 / 191007.610.8 2.514.413.6-13.9
2014-Jul-18 05:00N 50°48' W 129°54'22217.8 290 / 101019.6 5.4 0.516.712.9-14.4
2014-Jul-17 16:28N 48°35' W 125°18'1718.2
2014-Jul-17 15:32N 48°31' W 124°54'1919.1
2014-Jul-17 14:33N 48°26' W 124°26'1919.0
2014-Jul-17 13:33N 48°19' W 123°60'1919.1
2014-Jul-17 12:33N 48°15' W 123°32'1313.3
2014-Jul-17 11:33N 48°11' W 123°12'1919.2
2014-Jul-17 10:33N 48°09' W 122°44'2020.1
2014-Jul-17 09:33N 47°52' W 122°28'2019.9
2014-Jul-17 08:33N 47°32' W 122°26'1515.2
2014-Jul-17 07:33N 47°17' W 122°26'1 1.2
2014-Jul-17 06:18N 47°16' W 122°25'0 0.0
2014-Jul-17 05:33N 47°16' W 122°25'0 0.0
2014-Jul-17 04:30N 47°16' W 122°25'0 0.0
2014-Jul-17 03:24N 47°16' W 122°25'0 0.0
2014-Jul-17 02:30N 47°16' W 122°25'0 0.0
2014-Jul-17 01:33N 47°16' W 122°25'0 0.0
2014-Jul-17 00:30N 47°16' W 122°25'  
Track history (hours):
 
Tides and Currents Weather Stations Pressure Air Temp Water Temp Dewpoint Dewpoint Depression Visibility Wind Speed Wind Dir Waves Ship Positions

Horizon Kodiak

More information available from US FCC via Universal Licensing System and Coast Guard Vessel Documentation Center.

Last reported at 2014-Jul-27 00:00 UTC. Time now 2014-Jul-28 08:24 UTC.
Position N 50°12' W 128°30'.

Type: Cargo ship. MMSI: 366793000.

Wind from 110 at 19 knots

Waves 1.0 meters (3 feet), 4 second period

Barometer 1022.6 mb
Air temperature 16.7 ° C
Visibility: greater than 10.8 NM
Dewpoint 14.9 ° C
Water temperature 15.0 ° C

Date/timePositionNaut miles runAvg speedWind from/ knotsBaromVisibWave heightAir tempDewpointWater temp
2014-Jul-27 00:00N 50°12' W 128°30'6220.6 110 / 191022.610.8 1.016.714.915.0
2014-Jul-26 21:00N 49°36' W 127°12'4015.7 270 / 51023.0 21.116.0-12.2
2014-Jul-26 18:27N 49°09' W 126°27'1820.0
2014-Jul-26 17:33N 48°58' W 126°05'2019.9
2014-Jul-26 16:33N 48°46' W 125°41'2019.7
2014-Jul-26 15:33N 48°37' W 125°15'2120.6
2014-Jul-26 14:33N 48°31' W 124°45'2121.3
2014-Jul-26 13:33N 48°23' W 124°15'2120.9
2014-Jul-26 12:33N 48°16' W 123°46'1717.1
2014-Jul-26 11:33N 48°09' W 123°23'1817.8
2014-Jul-26 10:33N 48°12' W 122°56'1817.0
2014-Jul-26 09:28N 47°60' W 122°36'1718.2
2014-Jul-26 08:33N 47°44' W 122°26'1918.8
2014-Jul-26 07:33N 47°26' W 122°23'10 1.5
2014-Jul-26 01:09N 47°16' W 122°25'0 0.0
2014-Jul-25 19:33N 47°16' W 122°25'0 0.0
2014-Jul-25 16:30N 47°16' W 122°25'0 0.0
2014-Jul-25 15:33N 47°16' W 122°25'0 0.0
2014-Jul-25 13:32N 47°16' W 122°25'1 0.6
2014-Jul-25 12:33N 47°17' W 122°26'6 6.2
2014-Jul-25 11:33N 47°22' W 122°23'1616.1
2014-Jul-25 10:33N 47°38' W 122°28'1717.1
2014-Jul-25 09:33N 47°55' W 122°30'1818.4
2014-Jul-25 08:33N 48°10' W 122°47'1918.6
2014-Jul-25 07:33N 48°11' W 123°14'1414.1
2014-Jul-25 06:33N 48°13' W 123°35'1817.9
2014-Jul-25 05:33N 48°16' W 124°02'1817.8
2014-Jul-25 04:33N 48°23' W 124°26'1717.4
2014-Jul-25 03:33N 48°29' W 124°51'1818.2
2014-Jul-25 02:33N 48°29' W 125°18'1818.0
2014-Jul-25 01:33N 48°38' W 125°41'1818.5
2014-Jul-25 00:33N 48°49' W 126°04'1918.9
2014-Jul-24 23:33N 49°00' W 126°28'9316.7
2014-Jul-24 18:00N 49°54' W 128°24'45619.0 240 / 91021.110.8 0.514.412.5-14.4
2014-Jul-23 18:00N 54°12' W 138°36'23019.1 220 / 141018.9 5.4 0.516.713.9-13.9
2014-Jul-23 06:00N 56°00' W 144°30'   240 / 91018.2 5.4 0.513.912.9-12.8
2014-Jul-19 18:00N 57°18' W 145°06'41917.5 250 / 191009.810.8 1.013.912.0-13.3
2014-Jul-18 18:00N 53°24' W 134°54'24118.6 280 / 191007.610.8 2.514.413.6-13.9
2014-Jul-18 05:00N 50°48' W 129°54'22217.8 290 / 101019.6 5.4 0.516.712.9-14.4
2014-Jul-17 16:28N 48°35' W 125°18'1718.2
2014-Jul-17 15:32N 48°31' W 124°54'1919.1
2014-Jul-17 14:33N 48°26' W 124°26'1919.0
2014-Jul-17 13:33N 48°19' W 123°60'1919.1
2014-Jul-17 12:33N 48°15' W 123°32'1313.3
2014-Jul-17 11:33N 48°11' W 123°12'1919.2
2014-Jul-17 10:33N 48°09' W 122°44'2020.1
2014-Jul-17 09:33N 47°52' W 122°28'2019.9
2014-Jul-17 08:33N 47°32' W 122°26'1515.2
2014-Jul-17 07:33N 47°17' W 122°26'1 1.2
2014-Jul-17 06:18N 47°16' W 122°25'0 0.0
2014-Jul-17 05:33N 47°16' W 122°25'0 0.0
2014-Jul-17 04:30N 47°16' W 122°25'0 0.0
2014-Jul-17 03:24N 47°16' W 122°25'0 0.0
2014-Jul-17 02:30N 47°16' W 122°25'0 0.0
2014-Jul-17 01:33N 47°16' W 122°25'0 0.0
2014-Jul-17 00:30N 47°16' W 122°25'  

Dump ship's entire track history